Location: Bailleul
(50.3375°N, 2.8513°E)
Time: 11:40:03
(UTC+00:00)

COSMOS 2428 - Pass Details

Date: 16 June 2021
Orbit: 845 x 858 km, 70.9° (Epoch: 28 July)

Event Time Altitude Azimuth Distance (km) Brightness Sun altitude
Exits shadow 23:42:57 - 236° (SW) 2,969 5.2 -16.3°
Reaches altitude 10° 23:44:18 10° 240° (WSW) 2,489 4.9 -16.3°
Maximum altitude 23:49:41 41° 310° (NW) 1,230 3.9 -16.3°
Drops below altitude 10° 23:55:07 10° 20° (NNE) 2,505 6.3 -16.3°
Sets 23:57:45 0° 28° (NNE) 3,444 7.1 -16.3°
